Location: Barcelona
(41.3830°N, 2.1830°E)
Time: 12:10:06
(UTC+01:00)

ISS - Pass Details

Date: 24 October 2020
Orbit: 417 x 420 km, 51.6° (Epoch: 29 October)

Event Time Altitude Azimuth Distance (km) Brightness Sun altitude
Exits shadow 07:37:38 - 248° (WSW) 1,756 -1.1 -7.4°
Reaches altitude 10° 07:38:18 10° 251° (WSW) 1,490 -1.5 -7.3°
Maximum altitude 07:41:35 52° 329° (NNW) 526 -3.5 -6.7°
Drops below altitude 10° 07:44:52 10° 47° (NE) 1,497 -0.4 -6.1°
Sets 07:47:01 0° 52° (NE) 2,363 0.7 -5.7°
